FW5431 Weather Reports


Display with metric or nautical units.
time (UTC)temp
F
wind
direction
speed
MPH
gust
MPH
rain 1hr
in
rain 24hr
in
rain mn
in
humidity
%
barometer
mb
20260504020107 60 69 0.0 0.0 0.00 0.00 0.00 88 1022.0
20260504020002 60 69 0.0 0.0 0.00 0.00 0.00 88 1022.0
20260504014607 60 69 0.0 0.0 0.00 0.00 0.00 88 1022.1
20260504013059 60 69 0.0 0.0 0.00 0.00 0.00 88 1022.2
20260504011559 60 69 0.0 0.0 0.00 0.00 0.00 88 1022.1
20260504010002 61 69 0.0 0.0 0.00 0.00 0.00 88 1022.2
20260504004559 61 69 0.0 0.0 0.00 0.00 0.00 87 1022.2
20260504003107 61 69 0.0 2.0 0.00 0.00 0.00 87 1022.2
20260504001602 61 68 0.0 0.0 0.00 0.00 0.00 88 1022.2
20260504000104 61 68 0.0 0.0 0.00 0.00 0.00 88 1022.2
20260504000002 61 68 0.0 0.0 0.00 0.00 0.00 88 1022.2
20260503234559 61 68 0.0 0.0 0.00 0.00 0.00 88 1022.0
20260503233102 61 68 0.0 0.0 0.00 0.00 0.00 88 1022.0
20260503231559 61 68 0.0 0.0 0.00 0.00 0.00 87 1022.0
20260503230112 61 68 0.0 0.0 0.00 0.00 0.00 87 1022.0
20260503230002 61 68 0.0 0.0 0.00 0.00 0.00 87 1022.0
20260503224604 61 68 0.0 0.0 0.00 0.00 0.00 87 1022.0
20260503223112 61 68 0.0 0.0 0.00 0.00 0.00 87 1021.8
20260503221559 62 68 0.0 0.0 0.00 0.00 0.00 86 1021.6
20260503220059 62 68 0.0 0.0 0.00 0.00 0.00 85 1021.5
20260503220003 62 68 0.0 0.0 0.00 0.00 0.00 85 1021.5
20260503214601 63 68 0.0 0.0 0.00 0.00 0.00 85 1021.5
20260503213059 63 68 0.0 0.0 0.00 0.00 0.00 84 1021.7
20260503211559 63 68 0.0 0.0 0.00 0.00 0.00 83 1021.6
20260503210059 63 68 0.0 0.0 0.00 0.00 0.00 82 1021.5
20260503210006 63 68 0.0 0.0 0.00 0.00 0.00 82 1021.5
20260503204559 64 68 0.0 2.0 0.00 0.00 0.00 81 1021.4
20260503203059 64 68 0.0 1.0 0.00 0.00 0.00 79 1021.4
20260503201559 65 75 0.0 2.0 0.00 0.00 0.00 78 1021.3
20260503200059 66 75 0.0 2.0 0.00 0.00 0.00 75 1021.2
20260503200002 66 75 0.0 2.0 0.00 0.00 0.00 76 1021.2
20260503194624 67 75 0.0 2.0 0.00 0.00 0.00 69 1021.3
20260503193101 67 45 0.0 3.0 0.00 0.00 0.00 66 1021.3
20260503191612 67 28 0.0 4.0 0.00 0.00 0.00 68 1021.2
20260503190059 67 96 0.0 3.0 0.00 0.00 0.00 68 1021.2
20260503190001 67 96 1.0 3.0 0.00 0.00 0.00 68 1021.2
20260503184559 67 50 0.0 4.0 0.00 0.00 0.00 67 1021.2
20260503183105 67 359 1.0 6.0 0.00 0.00 0.00 67 1021.3
20260503181608 67 1 1.0 4.0 0.00 0.00 0.00 67 1021.3
20260503180059 68 50 3.0 7.0 0.00 0.00 0.00 68 1021.4
20260503180010 68 94 4.0 7.0 0.00 0.00 0.00 67 1021.4
20260503174616 68 90 3.0 8.0 0.00 0.00 0.00 65 1021.5
20260503173110 70 151 1.0 3.0 0.00 0.00 0.00 63 1021.5
20260503171559 69 349 1.0 6.0 0.00 0.00 0.00 58 1021.6
20260503170113 69 1 2.0 6.0 0.00 0.00 0.00 59 1021.6
20260503120117 63 96 2.0 3.0 0.00 0.02 0.00 80 1022.6
20260503081558 66 41 0.0 2.0 0.00 0.37 0.00 95 1018.7
20260503071604 66 92 1.0 3.0 0.00 0.37 0.00 96 1018.4
20260503054600 66 31 0.0 0.0 0.00 0.37 0.00 96 1018.4
20260503053100 66 31 0.0 0.0 0.00 0.37 0.00 96 1018.5
20260503051559 66 31 0.0 0.0 0.00 0.37 0.00 96 1018.7
20260503050100 66 283 0.0 0.0 0.00 0.37 0.00 96 1018.8
20260503050003 66 283 0.0 0.0 0.00 0.37 0.00 96 1018.8
20260503044613 66 283 0.0 0.0 0.00 0.37 0.00 96 1018.8
20260503043100 66 283 0.0 0.0 0.00 0.37 0.00 96 1018.9
20260503041613 66 283 0.0 0.0 0.00 0.37 0.00 96 1018.9
20260503040059 66 283 0.0 0.0 0.00 0.37 0.00 96 1018.8
20260503040008 66 282 0.0 0.0 0.00 0.37 0.00 96 1018.8
20260503034601 66 280 0.0 0.0 0.00 0.37 0.00 96 1018.8
20260503033117 66 280 0.0 0.0 0.00 0.37 0.00 96 1018.8
20260503031559 66 280 0.0 0.0 0.00 0.37 0.00 96 1018.8
20260503030108 66 280 0.0 0.0 0.00 0.37 0.00 96 1018.8
20260503030004 66 280 0.0 0.0 0.00 0.37 0.00 96 1018.8
20260503024604 66 280 0.0 0.0 0.00 0.37 0.37 96 1019.1
20260503023100 65 280 0.0 0.0 0.00 0.37 0.37 96 1019.0
20260503021611 65 280 0.0 0.0 0.00 0.37 0.37 96 1018.8